Location: Mactaquac Provincial Park
(45.9573°N, 66.8897°W)
Time: 11:29:33
(UTC-03:00)

Daily predictions for brighter satellites

Satellite Brightness Start Highest point End
(mag) Time Altitude Azimuth Time Altitude Azimuth Time Altitude Azimuth
SL-16 R/B 2.2 21:31:55 10° SSW 21:37:35 82° ESE 21:43:16 10° NNE
Cosmos 1666 2.8 21:36:01 10° N 21:39:57 70° E 21:43:50 10° SSE
Cosmos 1626 Rocket 4.0 21:39:27 10° SSE 21:43:38 42° E 21:47:49 10° NNE
COSMOS 2455 3.8 21:39:15 10° SSE 21:44:10 27° ESE 21:49:07 10° NE
PSLV R/B 3.5 21:44:21 10° SSE 21:47:20 49° ENE 21:50:22 10° N
Cosmos 1939 Rocket 3.0 21:43:16 10° SSE 21:47:25 82° ENE 21:51:35 10° N
ATLAS 3B R/B 4.1 21:45:09 10° SSE 21:50:19 20° ESE 21:55:25 10° ENE
APEX 3.8 21:46:43 10° NNW 21:50:36 69° WSW 21:55:39 10° SSE
Cosmos 2228 3.2 21:47:40 10° N 21:52:06 84° W 21:56:31 10° S
MetOp-B 4.5 21:47:23 10° SE 21:52:35 53° ENE 21:57:47 10° N
Lacrosse 5 rocket 2.2 21:53:12 10° WSW 21:57:01 54° NW 22:01:05 10° NE
Meteor 1-23 Rocket 4.5 21:52:02 10° SSW 21:57:41 76° WNW 22:03:27 10° N
Cosmos 1891 Rocket 4.5 21:51:52 10° N 21:58:04 89° E 22:04:07 10° S
Nimbus 7 Rocket 4.4 21:55:56 10° NNE 22:01:57 76° ESE 22:07:51 10° S
ERS-1 Rocket 4.0 22:00:05 10° S 22:04:53 45° W 22:09:43 10° NNW
USA 234 3.3 21:58:46 10° SE 22:05:22 88° NNE 22:11:58 10° NW
Cosmos 1603 3.8 22:01:04 10° S 22:06:31 56° ESE 22:12:01 10° NNE
Envisat 3.1 22:03:36 10° S 22:08:41 79° WSW 22:13:47 10° NNW
Cosmos 1515 4.4 22:08:53 11° SSE 22:12:16 35° E 22:15:50 10° NNE
Abrixas rocket 4.1 22:13:28 10° W 22:16:08 21° SW 22:18:26 12° S
UNK 4.2 22:14:39 10° NNE 22:20:02 70° ESE 22:25:39 10° S
BREEZE M DEB (TANK) 1.8 22:18:37 10° W 22:20:59 37° SSW 22:21:56 21° SE
Cosmos 1346 Rocket 4.1 22:20:28 16° SE 22:22:25 23° E 22:25:32 10° NE
USA 81 4.3 22:17:50 10° N 22:23:02 52° E 22:27:21 15° SSE
Lacrosse 4 Rocket 3.0 22:22:56 14° ESE 22:23:31 15° ESE 22:25:50 10° ENE
Tsikada Rocket 4.1 22:19:35 10° S 22:26:01 89° WNW 22:32:26 10° N
YAOGAN 6 2.6 22:27:50 15° SSE 22:30:52 88° ENE 22:34:38 10° NNW
Cosmos 1943 3.7 22:26:03 10° S 22:31:13 38° ESE 22:36:28 10° NE
Cosmos 1238 4.0 22:28:30 11° S 22:31:32 80° E 22:34:34 10° N
CZ-4 R/B 4.2 22:26:50 10° NNE 22:31:42 51° E 22:36:15 12° S
PSLV R/B 4.3 22:32:09 10° SW 22:35:13 27° SSE 22:36:27 22° SE
ISS -2.5 22:32:34 10° SSW 22:35:25 28° SE 22:38:16 10° E
Cosmos 1943 Rocket 3.4 22:32:58 10° N 22:37:50 30° NE 22:42:00 13° ESE
Cosmos 1461 4.3 22:35:10 10° NW 22:38:56 30° WSW 22:42:09 12° S
SPOT 5 3.7 22:36:55 10° S 22:41:05 40° W 22:45:11 10° NNW
Cosmos 1992 Rocket 4.0 22:38:57 10° NNW 22:44:13 86° WSW 22:48:02 19° SSE
SL-8 R/B 4.1 22:41:10 10° W 22:45:58 64° N 22:50:47 10° E
Landsat 7 4.0 22:44:24 20° SE 22:47:31 58° ENE 22:52:13 10° N
H-2A R/B 2.4 22:48:11 21° SE 22:51:17 49° ENE 22:56:10 10° N
SL-08 RB Rocket 3.7 22:49:11 20° SSE 22:52:20 86° ENE 22:56:54 10° NNW
Cosmos 2142 Rocket 4.5 22:46:15 10° N 22:52:36 85° E 22:57:28 18° S
Cosmos 1825 Rocket 3.5 22:49:41 15° S 22:53:17 78° E 22:57:44 10° NNE
Lacrosse 5 4.2 22:51:33 10° WNW 22:55:42 24° N 22:59:50 10° NE
Cosmos 1766 3.7 22:53:11 10° N 22:57:05 48° ENE 22:58:52 28° SE
SAR-Lupe-2 3.9 22:56:28 29° SE 22:58:02 53° ENE 23:01:32 10° N
Geosat 4.1 22:54:55 10° NE 22:59:54 57° ESE 23:04:15 13° SSW
SPOT 1/Viking Rocket 4.0 22:55:42 15° S 22:59:58 57° WSW 23:05:04 10° NNW
Terra 2.0 23:00:40 25° SE 23:03:19 58° ENE 23:08:01 10° N
Cosmos 1634 Rocket 4.1 22:57:56 10° N 23:04:06 77° W 23:08:56 17° S
Cosmos 1190 Rocket 4.0 23:00:19 14° S 23:04:46 65° ESE 23:10:03 10° NNE
DMSP B5D2-2 4.4 23:04:49 10° NNE 23:09:56 47° E 23:12:33 26° SSE
SeaSat 1 4.3 23:07:30 10° SSW 23:11:23 23° WSW 23:15:18 10° NW
Cosmos 2369 Rocket 2.3 23:07:28 10° NNW 23:13:07 69° WSW 23:16:29 25° S
Atlas Centaur 2 3.9 23:06:53 10° SW 23:13:17 26° S 23:15:35 23° SSE
ARGOS 3.7 23:10:34 17° S 23:14:37 55° W 23:19:57 10° NNW
CZ-4C R/B 3.8 23:12:55 24° S 23:15:21 60° WSW 23:19:25 10° NNW
CZ-4B R/B 4.5 23:11:02 10° N 23:15:52 47° WNW 23:20:48 10° SW
Cosmos 676 Rocket 4.2 23:18:18 26° S 23:21:11 55° ESE 23:26:23 10° NNE
Cosmos 489 Rocket 4.4 23:20:19 15° SSW 23:25:38 77° ESE 23:32:01 10° NNE
Cosmos 2279 Rocket 4.0 23:22:27 10° N 23:28:44 85° W 23:32:31 26° S
COSMOS 2455 3.4 23:23:48 10° SW 23:29:44 59° NW 23:35:42 10° NNE
Cosmos 1140 Rocket 4.3 23:29:18 29° SE 23:30:34 33° ESE 23:35:15 10° NE
Cosmos 1805 3.7 23:27:53 10° N 23:31:45 49° ENE 23:32:42 39° ESE
Cosmos 1953 2.4 23:29:17 10° N 23:33:16 63° E 23:34:19 44° SE
Cosmos 2263 4.4 23:31:15 10° NNW 23:36:48 62° WSW 23:39:31 30° S
Lacrosse 5 rocket 4.1 23:34:00 10° WNW 23:37:05 20° NNW 23:40:18 10° NE
Cosmos 1953 Rocket 4.4 23:35:33 17° SSW 23:38:43 48° WNW 23:43:02 10° N
ATLAS 3B R/B 2.9 23:32:25 10° SSW 23:40:08 83° SE 23:47:39 10° NE
COSMOS 2406 3.9 23:39:07 31° SE 23:40:34 37° ESE 23:45:47 10° NE
IGS 5A 3.8 23:43:56 36° SSW 23:45:24 57° W 23:49:31 10° NNW
Cosmos 2084 3.6 23:43:42 10° NW 23:47:48 65° NE 23:49:09 40° ESE
USA 234 4.4 23:45:57 21° SSW 23:48:52 29° SW 23:54:27 10° WNW
Cosmos 1340 4.2 23:50:01 22° E 23:50:01 22° E 23:52:48 10° NE
H-2A R/B 4.3 23:51:01 10° NE 23:53:02 16° E 23:53:02 16° E
Cosmos 2221 4.0 23:50:12 10° NNE 23:53:43 24° ENE 23:54:45 22° E
Cosmos 407 Rocket 3.9 23:49:26 15° SW 23:53:44 63° WNW 23:58:56 10° NNE
SL-27 R/B 2.4 23:55:23 63° E 23:55:23 63° E 23:58:31 10° NNE
